Weather History for Berlin, NH

Change the Weather History Date:

Friday, December 20, 2002

  Actual Average Record
Temperature  
Mean Temperature 32 °F -  
Max Temperature 37 °F 27 °F 37 °F (1998)
Min Temperature 27 °F 7 °F -24 °F (2004)
Degree Days  
Heating Degree Days 33    
Moisture  
Dew Point 32 °F    
Average Humidity 96    
Maximum Humidity 100    
Minimum Humidity 72    
Precipitation  
Precipitation 0.42 in - - ()
Sea Level Pressure  
Sea Level Pressure 29.46 in    
Wind  
Wind Speed 2 mph (NNW)    
Max Wind Speed 14 mph    
Max Gust Speed 18 mph    
Visibility 6 miles    
Events Rain , Snow    
Averages and records for this station are not official NWS values.
T = Trace of Precipitation, MM = Missing Value Source: NWS Daily Summary

Daily Weather History Graph

Daily Weather History Graph

Search for Another Location

Airport:

Trip Planner

Search our weather history database for the weather conditions in past years. The results will help you decide how hot, cold, wet, or windy it might be!

Date:

Astronomy

Dec. 20, 2002 Rise Set
Actual Time 7:17 AM EST 4:06 PM EST
Civil Twilight 6:44 AM EST 4:40 PM EST
Nautical Twilight 6:07 AM EST 5:17 PM EST
Astronomical Twilight 5:31 AM EST 5:52 PM EST
Moon 4:47 PM EST (12/20) 8:13 AM EST (12/20)
Length of Visible Light 9h 56m
Length of Day
8h 49m
Full, 99% of the Moon is Illuminated
Dec 20
Full
Dec 26
Last Quarter
Jan 2
New
Jan 10
First Quarter
Jan 18
Full

Hourly Weather History & Observations

Time (EST) Temp. Windchill Dew Point Humidity Pressure Visibility Wind Dir Wind Speed Gust Speed Precip Events Conditions
12:52 AM 28.9 °F 25.2 °F 21.9 °F 75% 29.83 in 10.0 mi WNW 3.5 mph - N/A   Mostly Cloudy
1:52 AM 28.9 °F - 21.0 °F 72% 29.82 in 10.0 mi Calm Calm - N/A   Clear
2:52 AM 28.0 °F - 21.9 °F 78% 29.81 in 10.0 mi Calm Calm - N/A   Clear
3:52 AM 27.0 °F - 24.1 °F 89% 29.76 in 10.0 mi Calm Calm - N/A   Clear
4:52 AM 28.0 °F - 24.1 °F 85% 29.73 in 10.0 mi Calm Calm - N/A   Scattered Clouds
5:52 AM 28.9 °F - 23.0 °F 78% 29.71 in 10.0 mi Calm Calm - N/A   Partly Cloudy
6:52 AM 28.9 °F - 25.0 °F 85% 29.71 in 10.0 mi Calm Calm - 0.00 in   Overcast
7:52 AM 28.9 °F - 25.0 °F 85% 29.69 in 10.0 mi Calm Calm - 0.00 in   Overcast
8:32 AM 30.2 °F 25.4 °F 26.6 °F 86% 29.63 in 8.0 mi North 4.6 mph - 0.01 in Rain Light Freezing Rain
8:52 AM 30.0 °F - 28.0 °F 92% 29.68 in 10.0 mi Calm Calm - 0.01 in   Mostly Cloudy
9:52 AM 30.9 °F 27.5 °F 30.0 °F 96% 29.64 in 8.0 mi NNW 3.5 mph - 0.02 in   Overcast
10:52 AM 30.9 °F - 30.9 °F 100% 29.61 in 4.0 mi Calm Calm - 0.02 in   Overcast
11:52 AM 32.0 °F 28.7 °F 32.0 °F 100% 29.55 in 6.0 mi NW 3.5 mph - 0.02 in   Overcast
12:24 PM 33.8 °F 30.8 °F 33.8 °F 100% 29.49 in 7.0 mi NNW 3.5 mph - 0.01 in   Overcast
12:52 PM 34.0 °F 28.8 °F 34.0 °F 100% 29.50 in 9.0 mi NNW 5.8 mph - 0.01 in   Overcast
1:52 PM 35.1 °F 31.0 °F 35.1 °F 100% 29.47 in 4.0 mi NNW 4.6 mph - 0.00 in Rain Light Rain
2:41 PM 35.6 °F 30.7 °F 35.6 °F 100% 29.39 in 6.0 mi NW 5.8 mph - 0.00 in   Overcast
2:52 PM 35.1 °F 30.1 °F 35.1 °F 100% 29.43 in 7.0 mi NW 5.8 mph - 0.00 in   Overcast
3:11 PM 35.6 °F - 35.6 °F 100% 29.39 in 1.8 mi Calm Calm - 0.03 in Rain Rain
3:18 PM 35.6 °F 32.8 °F 35.6 °F 100% 29.39 in 1.5 mi NNW 3.5 mph - 0.06 in Rain Heavy Rain
3:33 PM 35.6 °F 32.8 °F 35.6 °F 100% 29.38 in 1.8 mi NNW 3.5 mph - 0.10 in Rain Rain
3:52 PM 35.1 °F 31.0 °F 35.1 °F 100% 29.42 in 2.5 mi North 4.6 mph - 0.13 in Rain Rain
4:10 PM 35.6 °F 31.7 °F 35.6 °F 100% 29.36 in 5.0 mi NNW 4.6 mph - 0.02 in Rain Light Rain
4:22 PM 35.6 °F 32.8 °F 35.6 °F 100% 29.35 in 5.0 mi NNW 3.5 mph - 0.03 in Rain Light Rain
4:32 PM 35.6 °F - 35.6 °F 100% 29.34 in 5.0 mi Calm Calm - 0.03 in Rain Light Rain
4:52 PM 34.0 °F 31.0 °F 34.0 °F 100% 29.36 in 3.0 mi North 3.5 mph - 0.03 in Rain Light Rain
5:01 PM 33.8 °F - 33.8 °F 100% 29.33 in 1.8 mi Calm Calm - 0.00 in Rain Light Rain
5:07 PM 33.8 °F - 33.8 °F 100% 29.31 in 3.0 mi Calm Calm - 0.00 in Rain Light Rain
5:11 PM 33.8 °F - 33.8 °F 100% 29.30 in 1.8 mi Calm Calm - 0.00 in   Mostly Cloudy
5:22 PM 35.6 °F 31.7 °F 35.6 °F 100% 29.29 in 3.0 mi NNW 4.6 mph - 0.00 in   Mostly Cloudy
5:40 PM 35.6 °F - 35.6 °F 100% 29.32 in 7.0 mi Calm Calm - 0.00 in   Mostly Cloudy
5:52 PM 33.1 °F - 33.1 °F 100% 29.34 in 2.5 mi Calm Calm - 0.00 in Rain Light Rain
5:59 PM 33.8 °F - 33.8 °F 100% 29.31 in 3.0 mi Calm Calm - 0.01 in Rain Light Rain
6:06 PM 33.8 °F 30.8 °F 33.8 °F 100% 29.31 in 1.8 mi Variable 3.5 mph - 0.02 in Rain Heavy Rain
6:18 PM 35.6 °F 30.7 °F 35.6 °F 100% 29.34 in 3.0 mi WNW 5.8 mph - 0.04 in Rain Rain
6:26 PM 35.6 °F 32.8 °F 35.6 °F 100% 29.33 in 3.0 mi North 3.5 mph - 0.07 in Rain Heavy Rain
6:41 PM 35.6 °F - 35.6 °F 100% 29.35 in 2.5 mi Calm Calm - 0.10 in Rain Rain
6:52 PM 35.1 °F - 35.1 °F 100% 29.39 in 1.5 mi Calm Calm - 0.13 in Rain Rain
6:56 PM 33.8 °F 29.6 °F 33.8 °F 100% 29.35 in 1.2 mi East 4.6 mph - 0.01 in Rain Rain
7:10 PM 35.6 °F - 35.6 °F 100% 29.36 in 1.2 mi Calm Calm - 0.02 in Rain Light Rain
7:19 PM 35.6 °F 32.8 °F 35.6 °F 100% 29.35 in 2.0 mi North 3.5 mph - 0.03 in Rain Light Rain
7:30 PM 35.6 °F 26.6 °F 35.6 °F 100% 29.35 in 9.0 mi North 13.8 mph 18.4 mph 0.03 in Rain Light Rain
7:52 PM 37.0 °F 29.8 °F 35.1 °F 93% 29.39 in 10.0 mi NNW 10.4 mph - 0.03 in Rain Light Rain
8:52 PM 34.0 °F 26.6 °F 33.1 °F 96% 29.39 in 10.0 mi NNW 9.2 mph - 0.01 in   Overcast
9:13 PM 33.8 °F 27.0 °F 32.0 °F 93% 29.35 in 4.0 mi North 8.1 mph - 0.01 in Snow Light Snow
9:24 PM 33.8 °F 30.8 °F 32.0 °F 93% 29.36 in 8.0 mi NW 3.5 mph - 0.01 in Snow Light Snow
9:52 PM 32.0 °F - 32.0 °F 100% 29.40 in 10.0 mi Calm Calm - 0.01 in   Overcast
10:52 PM 32.0 °F 27.5 °F 32.0 °F 100% 29.39 in 9.0 mi West 4.6 mph - 0.00 in   Overcast
11:25 PM 32.0 °F 26.4 °F 32.0 °F 100% 29.36 in 10.0 mi Variable 5.8 mph - N/A   Overcast
11:52 PM 33.1 °F 28.7 °F 30.9 °F 92% 29.39 in 10.0 mi West 4.6 mph - N/A   Overcast